TimeMST,TemperatureF,Dew PointF,Humidity,Sea Level PressureIn,VisibilityMPH,Wind Direction,Wind SpeedMPH,Gust SpeedMPH,PrecipitationIn,Events,Conditions,WindDirDegrees,DateUTC
12:53 AM,44.1,-9999,N/A,29.59,10.0,NNW,4.6,-,N/A,,Clear,330,2014-01-04 07:53:00
1:53 AM,39.0,-9999,N/A,29.62,10.0,North,4.6,-,N/A,,Clear,360,2014-01-04 08:53:00
2:53 AM,36.0,-9999,N/A,29.68,10.0,NNW,9.2,-,N/A,,Clear,340,2014-01-04 09:53:00
3:53 AM,30.9,-9999,N/A,29.74,10.0,NE,9.2,-,N/A,,Clear,50,2014-01-04 10:53:00
4:53 AM,28.9,-9999,N/A,29.76,10.0,NNE,9.2,-,N/A,,Clear,20,2014-01-04 11:53:00
5:53 AM,24.1,-9999,N/A,29.86,10.0,Calm,Calm,-,N/A,,Clear,0,2014-01-04 12:53:00
6:53 AM,19.0,-9999,N/A,29.89,10.0,WNW,8.1,-,N/A,,Clear,290,2014-01-04 13:53:00
7:53 AM,28.0,-9999,N/A,29.92,10.0,North,9.2,-,N/A,,Mostly Cloudy,350,2014-01-04 14:53:00
8:53 AM,28.9,-9999,N/A,29.95,10.0,North,10.4,-,N/A,,Overcast,360,2014-01-04 15:53:00
9:53 AM,32.0,-9999,N/A,29.94,10.0,NNE,15.0,-,N/A,,Overcast,20,2014-01-04 16:53:00
10:48 AM,32.0,-9999,N/A,29.91,10.0,NNE,11.5,-,N/A,,Overcast,30,2014-01-04 17:48:00
10:53 AM,32.0,-9999,N/A,29.92,10.0,NNE,10.4,-,N/A,,Overcast,30,2014-01-04 17:53:00
11:27 AM,30.9,-9999,N/A,29.89,10.0,NE,16.1,-,N/A,,Overcast,40,2014-01-04 18:27:00
11:53 AM,30.0,-9999,N/A,29.89,10.0,NNE,17.3,-,N/A,,Overcast,30,2014-01-04 18:53:00
12:19 PM,30.0,-9999,N/A,29.86,10.0,NE,16.1,-,N/A,,Overcast,40,2014-01-04 19:19:00
12:53 PM,28.0,-9999,N/A,29.87,10.0,NE,19.6,-,N/A,,Overcast,40,2014-01-04 19:53:00
1:53 PM,26.1,21.0,81,29.91,2.0,NNE,16.1,-,0.00,Snow,Light Snow,30,2014-01-04 20:53:00
1:59 PM,26.1,21.0,81,29.88,1.2,NE,15.0,-,0.00,Snow,Light Snow,40,2014-01-04 20:59:00
2:03 PM,26.1,21.0,81,29.88,1.0,NNE,15.0,-,0.00,Snow,Light Snow,30,2014-01-04 21:03:00
2:16 PM,26.1,21.0,81,29.89,0.8,NNE,16.1,-,0.00,Snow,Light Snow,30,2014-01-04 21:16:00
2:24 PM,25.0,21.0,85,29.89,0.5,NNE,16.1,-,0.00,Fog-Snow,Snow,30,2014-01-04 21:24:00
2:53 PM,24.1,21.0,88,29.96,0.5,NNE,15.0,-,0.00,Fog-Snow,Snow,30,2014-01-04 21:53:00
3:41 PM,24.1,21.0,88,29.94,0.2,NNE,16.1,-,0.01,Fog-Snow,Snow,30,2014-01-04 22:41:00
3:53 PM,23.0,19.9,88,30.01,0.2,NNE,15.0,-,0.01,Fog-Snow,Snow,20,2014-01-04 22:53:00
4:02 PM,23.0,19.9,88,29.95,0.5,NNE,19.6,-,0.00,Fog-Snow,Snow,30,2014-01-04 23:02:00
4:26 PM,21.9,19.0,89,29.96,0.8,NE,18.4,-,0.00,Snow,Light Snow,40,2014-01-04 23:26:00
4:53 PM,21.9,19.0,89,30.05,1.0,NNE,15.0,-,0.00,Snow,Light Snow,30,2014-01-04 23:53:00
5:05 PM,21.9,18.0,85,30.00,1.0,NE,17.3,-,0.00,Snow,Light Snow,40,2014-01-05 00:05:00
5:53 PM,21.9,18.0,85,30.12,0.8,NNE,11.5,-,0.01,Snow,Light Snow,30,2014-01-05 00:53:00
6:25 PM,21.9,18.0,85,30.04,1.0,NNE,9.2,-,0.00,Snow,Light Snow,30,2014-01-05 01:25:00
6:53 PM,21.0,18.0,88,30.16,1.0,NNE,10.4,-,0.01,Snow,Light Snow,20,2014-01-05 01:53:00
7:02 PM,21.0,17.1,85,30.07,1.0,North,11.5,-,0.00,Snow,Light Snow,10,2014-01-05 02:02:00
7:10 PM,19.9,16.0,85,30.07,1.5,NNE,15.0,-,0.00,Snow,Light Snow,20,2014-01-05 02:10:00
7:53 PM,19.9,16.0,85,30.17,1.8,NNE,10.4,-,0.00,Snow,Light Snow,20,2014-01-05 02:53:00
8:19 PM,19.0,16.0,88,30.08,1.2,NNE,9.2,-,0.00,Snow,Light Snow,20,2014-01-05 03:19:00
8:35 PM,19.0,16.0,88,30.09,1.5,NNE,10.4,-,0.00,Snow,Light Snow,20,2014-01-05 03:35:00
8:53 PM,19.0,16.0,88,30.18,1.8,North,6.9,-,0.00,Snow,Light Snow,10,2014-01-05 03:53:00
9:00 PM,19.0,16.0,88,30.09,2.5,North,6.9,-,0.00,Snow,Light Snow,360,2014-01-05 04:00:00
9:07 PM,19.9,16.0,85,30.09,3.0,North,6.9,-,0.00,Snow,Light Snow,360,2014-01-05 04:07:00
9:36 PM,19.0,16.0,88,30.10,9.0,North,-9999.0,-,0.00,,Overcast,0,2014-01-05 04:36:00
9:53 PM,19.0,15.1,85,30.17,10.0,North,-9999.0,-,0.00,,Overcast,0,2014-01-05 04:53:00
10:53 PM,18.0,12.0,78,30.18,10.0,North,8.1,-,0.00,,Overcast,350,2014-01-05 05:53:00
11:53 PM,12.0,7.0,80,30.21,10.0,Calm,Calm,-,N/A,,Overcast,0,2014-01-05 06:53:00